Pagrindinis puslapis
METAR-TAF:

METAR-TAF

Oro uostai :

Arar, Saudo Arabija

platuma: 30-54N, ilguma: 041-08E, Aukštis: 555 m

Dabartinis oras

Ataskaita buvo paskelbta 27 minutes, ne 07:00 UTC
Vėjas 16 kt iš Vakarų/Šiaurės Vakarų
Temperatūra 13°C
Drėgmė 62%
Slėgis 1018 hPa
Matomumas 10 km arba daugiau
nėra debesų žemiau 1500 m ir nėra kamuolinių lietaus debesų

METAR: OERR 260700Z 29016KT CAVOK 13/06 Q1018

Laikas: 10:27 (07:27 UTC)

Prognozė

Ataskaita buvo paskelbta 8 valandos ir 27 minutes, ne 23:00 UTC
Prognozė galioja nuo 26 metu 00 UTC su 27 metu 06 UTC
Vėjas 10 kt iš Vakarų
Matomumas: 7000 m
Išsisklaidę debesys ne aukštis 4000 ft
Laikinai
nuo 26 metu 00 UTC su 26 metu 06 UTC
Matomumas: 3000 m
Išsisklaidę debesys ne aukštis 2000 ft
rūkana, migla
Tapsmas
nuo 26 metu 06 UTC su 26 metu 08 UTC
Vėjas 15 kt iš Vakarų/Šiaurės Vakarų
Laikinai
nuo 26 metu 06 UTC su 26 metu 12 UTC
Matomumas: 3500 m
Dulkes pustymas

TAF: OERR 252300Z 2600/2706 27010KT 7000 SCT040 TEMPO 2600/2606 3000 BR HZ SCT020 BECMG 2606/2608 30015KT TEMPO 2606/2612 3500 BLDU

Orai ataskaitas ir orų prognozės (METAR, TAF).

turimą stotys yra geltonos ir raudonos taškus žemėlapyje.

Perkelti pele per norėdami pamatyti stoties vardą.

Tada spustelėkite, norėdami matyti oro stebėjimo ir prognozės.

Norėdami pakeisti žemėlapį: spustelėkite ant žalios mygtukų su juodo kryžiaus žemyn,; žalią mygtuką su brūkšneliu, jei norite nutolinti; arba žalių rodyklių gretimoms žemėlapius.


METAR-TAF: